Location: T. Spence Memorial Observatory
(32.7356°N, 82.2098°W)
Time: 00:10:15
(UTC-04:00)

Daily predictions for brighter satellites

Satellite Brightness Start Highest point End
(mag) Time Altitude Azimuth Time Altitude Azimuth Time Altitude Azimuth
Cosmos 1709 Rocket 4.0 00:13:41 10° N 00:19:27 76° NW 00:19:27 76° NW
Cosmos 2278 Rocket 3.1 00:20:26 42° W 00:20:58 43° WNW 00:26:21 10° N
NOSS 3-4 (A) 4.0 00:20:16 47° W 00:21:23 53° NW 00:27:34 10° NNE
NOSS 3-4 (C) 4.0 00:20:25 48° W 00:21:28 54° WNW 00:27:39 10° NNE
ATLAS 3B CENTAUR R/B 4.4 00:16:54 10° WSW 00:24:05 29° SW 00:24:05 29° SW
COSMOS 2406 4.4 00:26:22 10° NW 00:30:39 35° W 00:30:39 35° W
CENTAUR R/B 4.0 00:31:21 10° NNW 00:38:57 42° NE 00:41:25 35° E
ADEOS Rocket 3.4 00:38:17 10° NNE 00:43:06 57° NE 00:43:06 57° NE
USA 234 3.6 00:41:18 10° NE 00:46:17 54° ENE 00:46:17 54° ENE
H-2A R/B 4.4 00:53:55 18° NNE 00:53:55 18° NNE 00:55:15 10° N
H-2A R/B 3.9 00:49:48 50° SW 00:52:40 69° SSE 07:03:30 10° SE
Cosmos 2369 Rocket 4.4 00:55:50 15° ENE 00:55:50 15° ENE 00:57:19 10° NE
Cosmos 2297 4.5 01:01:31 48° NNW 01:01:31 48° NNW 01:06:03 10° N
Cosmos 2184 Rocket 4.3 01:00:47 10° N 01:06:02 64° N 01:06:02 64° N
Mayak 1.1 01:06:07 10° N 01:07:42 22° N 01:07:42 22° N
ATLAS 5 CENTAUR R/B 3.8 01:14:01 22° NW 01:14:01 22° NW 01:17:13 10° N
Cosmos 2082 Rocket 3.0 01:08:03 10° NNW 01:12:02 47° NNW 01:12:02 47° NNW
ATLAS 3B R/B 4.0 01:12:21 10° NW 01:16:10 27° W 01:16:10 27° W
Cosmos 1833 Rocket 3.8 01:17:31 10° NNW 01:20:59 37° NW 01:20:59 37° NW
Cosmos 1943 Rocket 3.5 01:45:58 31° NE 01:45:58 31° NE 01:49:09 10° NE
BREEZE-M R/B 4.4 01:43:23 10° NW 02:03:01 - SE 01:48:58 87° NNW
Meteor 2-3 Rocket 4.3 02:25:50 55° NE 02:25:50 55° NE 02:30:32 10° NNE
CENTAUR R/B 3.7 02:22:03 10° NW 02:28:33 43° W 02:28:33 43° W
Resurs 1-4 Rocket 3.8 02:29:42 10° NE 02:33:30 23° E 02:33:30 23° E
Cosmos 2369 Rocket 3.1 02:37:37 40° NW 02:37:37 40° NW 02:42:10 10° N
BREEZE-M DEB (TANK) 4.4 02:42:16 53° W 02:43:30 62° NW 02:47:11 10° NE
Lacrosse 4 Rocket 3.2 02:52:46 30° NE 02:52:46 30° NE 02:55:15 10° NE
GP-B 4.4 02:50:22 10° NNE 02:53:22 38° NE 02:53:22 38° NE
ARIANE 5 R/B 4.1 02:59:14 10° NE 03:03:13 24° E 03:03:29 24° E
ATLAS 2A CENTAUR R/B 4.4 03:04:48 35° SSE 03:04:48 35° SSE 03:11:25 10° ESE
Cosmos 1825 4.4 03:07:41 23° N 03:07:41 23° N 03:09:12 10° N
Cosmos 1656 Rocket 3.8 03:14:34 68° NW 03:14:34 68° NW 03:19:55 10° NNE
Cosmos 1867 3.5 03:20:08 81° NNE 03:20:08 81° NNE 03:25:19 10° NNE
IRS-1C 4.2 03:17:28 10° NNE 03:22:47 67° ESE 03:22:56 66° ESE
Cosmos 1833 4.0 03:21:52 10° NNW 03:27:29 88° ENE 03:27:45 82° SSE
Cosmos 1943 Rocket 3.9 03:27:29 20° WNW 03:27:48 20° WNW 03:31:50 10° NNW
Cosmos 1437 Rocket 3.9 03:29:54 41° ENE 03:29:54 41° ENE 03:33:17 10° NNE
NPP 3.7 03:25:54 10° N 03:31:12 65° WNW 03:31:12 65° WNW
Meteor 2-6 Rocket 4.2 03:25:58 10° N 03:31:21 70° E 03:32:08 60° SE
Cosmos 1703 Rocket 4.1 03:30:18 10° N 03:34:33 55° ENE 03:34:33 55° ENE
Cosmos 1818 3.9 03:32:26 10° NNW 03:37:52 64° ENE 03:40:38 29° SE
Cosmos 841 Rocket 4.1 03:32:56 10° N 03:38:00 51° ENE 03:40:09 31° SE
Spot 4 Rocket 4.3 03:33:24 10° NNE 03:38:29 58° ESE 03:39:11 53° SE
CZ-2D R/B 2.0 03:36:28 10° N 03:41:46 74° WNW 03:42:08 71° WSW
AQUA 4.0 03:37:33 10° N 03:41:55 58° NW 03:41:55 58° NW
Cosmos 1782 4.2 03:38:49 10° NNW 03:41:03 31° NNW 03:41:03 31° NNW
ADEOS II 3.9 03:41:32 10° NE 03:45:45 24° E 03:48:34 16° SE
Okean 1-7 3.5 03:43:06 10° N 03:47:26 55° E 03:47:59 51° ESE
SL-16 R/B 2.4 03:46:32 54° S 03:48:01 77° WSW 03:54:12 10° NNW
Meteor 1-10 Rocket 4.1 03:43:25 10° N 03:49:01 79° W 03:49:55 63° SSW
IRS-1D 3.3 03:44:37 10° N 03:49:44 77° WNW 03:50:08 72° WSW
Meteor 1-27 Rocket 4.1 03:45:54 10° N 03:51:41 63° E 03:54:47 28° SSE
UNK 3.9 03:55:00 58° WNW 03:55:00 58° WNW 03:59:13 10° NNW
Meteor 1-4 Rocket 3.1 03:56:02 54° ENE 03:56:02 54° ENE 03:59:12 10° NNE
H-2A R/B 3.2 03:52:36 10° N 03:55:37 39° NW 03:55:37 39° NW
PSLV R/B 4.1 03:58:15 58° SE 03:58:54 70° ENE 04:03:06 10° N
Cosmos 1354 Rocket 4.1 03:58:32 51° SSE 03:59:44 69° ESE 04:04:56 10° NNE
Cosmos 1535 Rocket 4.4 03:57:01 10° NNW 04:03:05 69° W 04:04:58 45° SSW
Cosmos 1486 Rocket 4.3 04:03:11 47° W 04:03:50 50° WNW 04:09:00 10° N
Cosmos 44 Rocket 3.8 04:03:27 41° SSE 04:04:29 48° ESE 04:09:13 10° NE
GPS 2-04 Rocket1 3.3 04:06:03 48° SE 04:06:03 48° SE 04:09:27 10° E
Cosmos 1605 Rocket 4.1 04:01:03 10° N 04:07:10 73° E 04:11:12 23° SSE
Cosmos 1339 Rocket 4.4 04:09:18 36° S 04:12:03 89° E 04:18:24 10° N
Cosmos 1862 4.5 04:12:47 30° WNW 04:12:47 30° WNW 04:15:41 10° NNW
Resurs 1-4 Rocket 2.9 04:08:57 10° N 04:13:43 34° WNW 04:14:35 32° W
CBERS 1 LM4 rocket 4.3 04:09:55 10° NNE 04:14:56 88° E 04:16:24 46° SSW
Cosmos 44 3.2 04:17:36 53° WSW 04:18:29 67° WNW 04:23:20 10° NNE
SAR-Lupe-2 4.4 04:17:03 28° SE 04:18:35 48° ENE 04:22:03 10° N
Cosmos 389 Rocket 3.1 04:21:40 41° SE 04:22:32 53° E 04:26:05 10° NNE
Cosmos 1934 Rocket 4.2 04:18:44 10° NNW 04:24:49 51° W 04:27:12 34° SW
ATLAS CENTAUR Rocket 2.2 04:26:13 40° SSW 04:26:56 44° SSE 04:33:56 10° E
Cosmos 968 Rocket 3.6 04:27:06 30° S 04:29:41 73° ESE 04:34:57 10° NNE
Cosmos 2227 Rocket 4.1 04:24:54 10° N 04:29:51 30° ENE 04:34:45 10° ESE
Lacrosse 4 Rocket 3.7 04:29:05 13° WNW 04:29:57 14° NW 04:32:15 10° NNW
Cosmos 1503 Rocket 4.2 04:28:22 39° SW 04:29:58 55° WNW 04:35:03 10° N
COSMOS 2455 2.7 04:26:32 10° NNW 04:32:35 83° WSW 04:38:34 10° SSE
UNKNOWN OBJECT B 3.1 04:35:53 10° N 04:39:47 53° WNW 04:40:53 39° SW
Delta 2 Rocket 4.1 04:37:14 18° WNW 04:40:26 60° N 04:45:25 10° E
ARIANE 5 R/B 3.5 04:37:57 10° N 04:42:16 30° WNW 04:43:50 25° WSW
Meteor 1-14 Rocket 4.3 04:41:05 18° S 04:45:22 79° E 04:51:08 10° N
Cosmos 2221 Rocket 4.1 04:41:18 10° NNW 04:45:25 39° W 04:46:36 32° SW
Meteosat 1 Rocket2 4.5 04:46:19 21° S 04:47:01 22° SSE 04:50:06 10° ESE
ATLAS CENTAUR R/B 1.2 04:45:54 40° SW 04:47:02 64° WNW 04:50:55 10° NNE
Cosmos 1633 2.6 04:46:49 41° SW 04:47:44 55° W 04:51:17 10° N
CZ-2D R/B 4.2 04:46:47 10° N 04:50:43 38° WNW 04:52:06 29° WSW
ASTEX 1 3.4 04:49:29 10° S 04:54:29 85° E 04:59:30 10° N
Cosmos 1727 Rocket 4.4 04:51:33 24° SW 04:54:56 45° W 05:00:53 10° N
SEDSat Delta rocket 3.7 04:56:27 27° SSW 04:56:43 27° SSW 05:00:19 10° SE
Cosmos 1656 3.7 04:53:38 21° SSW 04:57:37 86° WNW 05:03:19 10° NNE
Meteor 1-25 Rocket 4.1 04:56:20 17° SSW 05:00:40 75° W 05:06:14 10° N
Cosmos 2173 Rocket 4.1 04:57:14 10° N 05:03:20 77° E 05:09:25 10° S
ADEOS 4.3 05:00:44 10° N 05:05:30 37° WNW 05:08:37 19° SW
PSLV R/B 3.9 05:01:57 10° NNE 05:06:19 65° E 05:10:38 10° S
Cosmos 540 Rocket 4.2 05:04:47 10° NW 05:09:18 32° W 05:12:56 14° SSW
CZ-3 R/B 4.1 04:52:46 16° SW 05:09:35 33° S 05:17:20 10° ESE
Shenzhou-11 Module 3.5 05:08:28 19° S 05:09:45 26° SE 05:12:16 10° E
Centaur D AC-28 3.4 05:01:28 10° W 05:10:31 28° SW 05:14:21 10° SSE
Helios 1A Rocket 4.4 05:14:46 10° NNW 05:17:47 21° WNW 05:19:42 15° WSW
Cosmos 1602 3.9 05:13:57 10° S 05:17:48 75° E 05:21:38 10° N
Meteor 2-12 Rocket 4.4 05:12:05 10° N 05:18:12 75° W 05:24:15 10° S
Cosmos 1812 3.6 05:15:30 10° NNW 05:18:55 30° W 05:21:21 16° SW
ATLAS 2A CENTAUR R/B 3.1 05:11:49 14° WSW 05:20:17 47° S 05:25:03 10° ESE
Cosmos 1697 Rocket 2.7 05:15:07 12° SSW 05:20:27 88° WNW 05:26:09 10° NNE
ADEOS II 3.0 05:20:46 10° N 05:25:25 33° WNW 05:29:30 13° SW
NOSS 3-1 (C) 4.3 05:17:46 10° NNW 05:25:42 86° ENE 05:34:22 10° SSE
CZ-4B R/B 3.1 05:25:36 10° NNE 05:29:43 79° E 05:34:03 10° S
Cosmos 1782 Rocket 3.8 05:25:22 10° S 05:29:46 75° E 05:34:09 10° N
Cosmos 2016 Rocket 4.1 05:25:11 10° N 05:31:36 89° WSW 05:37:55 10° S
Cosmos 1378 Rocket 3.5 05:29:28 10° N 05:33:55 77° W 05:38:20 10° S
Cosmos 2369 4.3 05:29:30 12° SW 05:34:17 41° WNW 05:39:36 10° N
Okean 3 3.9 05:30:32 10° NNW 05:34:30 42° W 05:38:28 10° SSW
Cosmos 1802 Rocket 4.0 05:29:27 10° NNW 05:35:39 68° W 05:41:44 10° S
MOS 1-B 4.4 05:30:11 10° NNE 05:36:00 89° WNW 05:41:46 10° SSW
Cosmos 2219 4.2 05:32:37 10° NW 05:37:07 25° WSW 05:41:36 10° SSW
Gbstr 26 Del rocket 2.9 05:34:35 11° SW 05:38:08 66° SE 05:42:11 10° NE
Cosmos 2061 Rocket 4.0 05:33:05 10° NNW 05:39:14 64° W 05:45:25 10° S
GPS 2-04 Rocket1 3.1 05:41:08 10° W 05:45:12 63° N 05:49:06 10° ENE
Genesis I 3.9 05:41:50 10° NW 05:45:33 35° WSW 05:49:12 10° S
Cosmos 1980 Rocket 2.3 05:40:45 10° SSW 05:46:20 86° ESE 05:51:59 10° NNE
Milstar 3 Cent rocket 3.5 05:32:59 10° W 05:46:57 68° S 05:53:34 10° ESE
Iridium 51 4.4 05:43:45 10° N 05:47:17 73° E 05:51:03 10° S
NOSS 7 (H) 4.5 05:44:20 10° SSW 05:48:10 88° WNW 05:51:29 10° NNE
Cosmos 1538 Rocket 4.4 05:42:50 10° NNW 05:48:14 73° ENE 05:53:33 10° SSE
PSLV R/B 4.0 05:48:14 10° N 05:52:15 59° WNW 05:56:18 10° SSW
CZ-4B R/B 3.8 05:47:23 10° NNE 05:52:42 61° ESE 05:58:06 10° S
SeaSat 1 2.8 05:47:55 10° SSE 05:52:48 72° ENE 05:57:43 10° NNW
SL-24 R/B - RUBIN 2 4.3 05:49:18 10° NNW 05:53:38 60° ENE 05:58:13 10° SE
SL-8 R/B 3.7 05:48:51 10° NW 05:53:41 82° SW 05:58:28 10° SE
Meteor 2-4 Rocket 4.4 05:48:42 10° N 05:54:31 63° E 06:00:10 10° SSE
